Location: downtown San Diego
(32.7310°N, 117.1990°W)
Time: 20:41:13
(UTC-08:00)

Meteor 1-12 Rocket - Pass Details

Date: 19 May 2017
Orbit: 855 x 927 km, 81.2° (Epoch: 20 November)

Event Time Altitude Azimuth Distance (km) Brightness Sun altitude
Rises 20:58:13 0° 356° (N) 3,579 8.1 -14.4°
Reaches altitude 10° 21:00:45 10° 1° (N) 2,633 7.3 -14.8°
Maximum altitude 21:06:42 59° 80° (E) 1,058 4.5 -15.8°
Enters shadow 21:10:36 22° 153° (SSE) 1,906 5.5 -16.4°
